| time (UTC) | temp F | wind direction | speed MPH | gust MPH | rain 1hr in | rain 24hr in | rain mn in | humidity % | barometer mb |
| 20260507195204 | 67 | 324 | 11.0 | 23.0 | 0.00 | 0.03 | 0.03 | 26 | 1015.0 |
| 20260507194701 | 67 | 243 | 2.0 | 18.0 | 0.00 | 0.03 | 0.03 | 28 | 1015.0 |
| 20260507194156 | 67 | 339 | 12.0 | 27.0 | 0.00 | 0.03 | 0.03 | 26 | 1015.0 |
| 20260507193654 | 68 | 351 | 8.0 | 22.0 | 0.00 | 0.03 | 0.03 | 25 | 1014.9 |
| 20260507193151 | 66 | 255 | 9.0 | 29.0 | 0.00 | 0.03 | 0.03 | 28 | 1014.9 |
| 20260507192646 | 65 | 242 | 9.0 | 25.0 | 0.00 | 0.03 | 0.03 | 28 | 1015.0 |
| 20260507192144 | 65 | 265 | 14.0 | 25.0 | 0.00 | 0.03 | 0.03 | 28 | 1015.4 |
| 20260507191639 | 67 | 291 | 8.0 | 19.0 | 0.00 | 0.03 | 0.03 | 26 | 1015.5 |
| 20260507191136 | 67 | 231 | 10.0 | 15.0 | 0.00 | 0.03 | 0.03 | 27 | 1015.4 |
| 20260507190633 | 66 | 349 | 5.0 | 15.0 | 0.00 | 0.03 | 0.03 | 28 | 1015.4 |
| 20260507190132 | 66 | 335 | 5.0 | 15.0 | 0.00 | 0.03 | 0.03 | 29 | 1015.3 |
| 20260507185630 | 65 | 0 | 3.0 | 10.0 | 0.00 | 0.03 | 0.03 | 30 | 1015.6 |
| 20260507185126 | 65 | 270 | 9.0 | 9.0 | 0.00 | 0.03 | 0.03 | 30 | 1015.5 |
| 20260507184624 | 64 | 3 | 2.0 | 19.0 | 0.00 | 0.03 | 0.03 | 32 | 1015.7 |
| 20260507184122 | 64 | 281 | 4.0 | 15.0 | 0.00 | 0.03 | 0.03 | 30 | 1015.6 |
| 20260507183618 | 64 | 250 | 8.0 | 13.0 | 0.00 | 0.03 | 0.03 | 30 | 1015.6 |
| 20260507183115 | 64 | 238 | 6.0 | 13.0 | 0.00 | 0.03 | 0.03 | 30 | 1015.7 |
| 20260507182611 | 64 | 270 | 3.0 | 8.0 | 0.00 | 0.03 | 0.03 | 31 | 1015.7 |
| 20260507182107 | 64 | 339 | 6.0 | 10.0 | 0.00 | 0.03 | 0.03 | 31 | 1015.8 |
| 20260507181605 | 64 | 228 | 7.0 | 13.0 | 0.00 | 0.03 | 0.03 | 29 | 1015.8 |
| 20260507181101 | 64 | 300 | 10.0 | 15.0 | 0.00 | 0.03 | 0.03 | 30 | 1015.6 |
| 20260507180558 | 64 | 226 | 7.0 | 11.0 | 0.00 | 0.03 | 0.03 | 31 | 1015.6 |
| 20260507180054 | 63 | 272 | 6.0 | 8.0 | 0.00 | 0.03 | 0.03 | 32 | 1015.7 |
| 20260507175550 | 63 | 202 | 12.0 | 12.0 | 0.00 | 0.03 | 0.03 | 33 | 1015.8 |
| 20260507175048 | 63 | 209 | 9.0 | 13.0 | 0.00 | 0.03 | 0.03 | 32 | 1016.0 |
| 20260507174545 | 63 | 229 | 9.0 | 9.0 | 0.00 | 0.03 | 0.03 | 31 | 1016.0 |
| 20260507174043 | 62 | 220 | 5.0 | 13.0 | 0.00 | 0.03 | 0.03 | 32 | 1016.1 |
| 20260507173539 | 63 | 223 | 6.0 | 11.0 | 0.00 | 0.03 | 0.03 | 31 | 1016.0 |
| 20260507173037 | 63 | 241 | 2.0 | 9.0 | 0.00 | 0.03 | 0.03 | 32 | 1016.0 |
| 20260507172532 | 63 | 180 | 4.0 | 9.0 | 0.00 | 0.03 | 0.03 | 32 | 1016.0 |
| 20260507172029 | 63 | 223 | 9.0 | 15.0 | 0.00 | 0.03 | 0.03 | 32 | 1015.8 |
| 20260507171525 | 62 | 254 | 6.0 | 6.0 | 0.00 | 0.03 | 0.03 | 34 | 1016.0 |
| 20260507171023 | 62 | 157 | 3.0 | 6.0 | 0.00 | 0.03 | 0.03 | 34 | 1016.0 |
| 20260507170519 | 61 | 232 | 0.0 | 10.0 | 0.00 | 0.03 | 0.03 | 35 | 1016.1 |
| 20260507170016 | 61 | 230 | 4.0 | 9.0 | 0.00 | 0.03 | 0.03 | 35 | 1016.3 |
| 20260507165512 | 60 | 231 | 10.0 | 14.0 | 0.00 | 0.03 | 0.03 | 36 | 1016.3 |
| 20260507165009 | 61 | 229 | 3.0 | 9.0 | 0.00 | 0.03 | 0.03 | 36 | 1016.1 |
| 20260507164505 | 60 | 220 | 5.0 | 13.0 | 0.00 | 0.03 | 0.03 | 37 | 1016.4 |
| 20260507164002 | 61 | 230 | 8.0 | 11.0 | 0.00 | 0.03 | 0.03 | 35 | 1016.3 |
| 20260507163459 | 61 | 199 | 7.0 | 11.0 | 0.00 | 0.03 | 0.03 | 36 | 1016.1 |
| 20260507162956 | 60 | 225 | 4.0 | 12.0 | 0.00 | 0.03 | 0.03 | 37 | 1016.4 |
| 20260507162451 | 61 | 166 | 6.0 | 8.0 | 0.00 | 0.03 | 0.03 | 35 | 1016.4 |
| 20260507161948 | 60 | 199 | 3.0 | 9.0 | 0.00 | 0.03 | 0.03 | 36 | 1016.4 |
| 20260507161444 | 60 | 222 | 9.0 | 10.0 | 0.00 | 0.03 | 0.03 | 36 | 1016.7 |
| 20260507160942 | 58 | 231 | 4.0 | 9.0 | 0.00 | 0.03 | 0.03 | 38 | 1016.8 |
| 20260507160437 | 59 | 223 | 8.0 | 12.0 | 0.00 | 0.03 | 0.03 | 36 | 1016.7 |
| 20260507155933 | 58 | 235 | 7.0 | 8.0 | 0.00 | 0.03 | 0.03 | 36 | 1016.7 |
| 20260507155430 | 58 | 195 | 5.0 | 9.0 | 0.02 | 0.03 | 0.03 | 37 | 1016.8 |
| 20260507154927 | 58 | 183 | 7.0 | 7.0 | 0.00 | 0.03 | 0.03 | 38 | 1017.0 |
| 20260507154423 | 57 | 174 | 9.0 | 9.0 | 0.00 | 0.03 | 0.03 | 38 | 1016.8 |
| 20260507153921 | 56 | 180 | 8.0 | 10.0 | 0.02 | 0.03 | 0.03 | 38 | 1017.0 |
| 20260507153417 | 56 | 213 | 6.0 | 11.0 | 0.02 | 0.03 | 0.03 | 38 | 1016.7 |
| 20260507152914 | 56 | 192 | 3.0 | 7.0 | 0.00 | 0.02 | 0.02 | 39 | 1016.7 |
| 20260507152410 | 56 | 158 | 5.0 | 6.0 | 0.00 | 0.02 | 0.02 | 39 | 1016.7 |
| 20260507151906 | 55 | 229 | 3.0 | 8.0 | 0.02 | 0.02 | 0.02 | 40 | 1017.1 |
| 20260507151403 | 55 | 153 | 4.0 | 8.0 | 0.02 | 0.02 | 0.02 | 39 | 1016.8 |
| 20260507150900 | 54 | 160 | 3.0 | 9.0 | 0.00 | 0.02 | 0.02 | 38 | 1016.8 |
| 20260507150356 | 54 | 190 | 5.0 | 7.0 | 0.00 | 0.02 | 0.02 | 40 | 1016.9 |
| 20260507145852 | 53 | 163 | 7.0 | 7.0 | 0.02 | 0.02 | 0.02 | 40 | 1016.8 |
| 20260507145349 | 53 | 221 | 2.0 | 9.0 | 0.02 | 0.02 | 0.02 | 40 | 1017.0 |
| 20260507144846 | 52 | 168 | 4.0 | 9.0 | 0.00 | 0.02 | 0.02 | 41 | 1017.1 |
| 20260507144343 | 52 | 194 | 4.0 | 8.0 | 0.02 | 0.02 | 0.02 | 40 | 1017.0 |
| 20260507143840 | 52 | 180 | 3.0 | 9.0 | 0.02 | 0.02 | 0.02 | 40 | 1017.0 |
| 20260507143337 | 51 | 204 | 5.0 | 9.0 | 0.00 | 0.01 | 0.01 | 41 | 1016.8 |
| 20260507142833 | 50 | 220 | 3.0 | 7.0 | 0.02 | 0.01 | 0.01 | 43 | 1017.0 |
| 20260507142329 | 50 | 229 | 5.0 | 7.0 | 0.02 | 0.01 | 0.01 | 43 | 1017.0 |
| 20260507141826 | 50 | 147 | 7.0 | 12.0 | 0.00 | 0.01 | 0.01 | 43 | 1016.7 |
| 20260507141323 | 49 | 201 | 3.0 | 8.0 | 0.00 | 0.01 | 0.01 | 43 | 1016.7 |
| 20260507140819 | 49 | 200 | 3.0 | 9.0 | 0.02 | 0.01 | 0.01 | 44 | 1016.8 |
| 20260507140316 | 48 | 179 | 4.0 | 11.0 | 0.02 | 0.01 | 0.01 | 44 | 1016.7 |
| 20260507135814 | 48 | 202 | 5.0 | 9.0 | 0.00 | 0.00 | 0.00 | 45 | 1017.0 |
| 20260507135311 | 48 | 167 | 4.0 | 10.0 | 0.00 | 0.00 | 0.00 | 45 | 1016.9 |
| 20260507134808 | 47 | 214 | 6.0 | 14.0 | 0.02 | 0.00 | 0.00 | 46 | 1016.8 |
| 20260507134304 | 47 | 253 | 4.0 | 7.0 | 0.02 | 0.00 | 0.00 | 46 | 1016.8 |
| 20260507133800 | 46 | 243 | 3.0 | 9.0 | 0.00 | 0.00 | 0.00 | 46 | 1016.9 |
| 20260507133256 | 46 | 213 | 3.0 | 6.0 | 0.00 | 0.00 | 0.00 | 47 | 1016.8 |
| 20260507132754 | 46 | 178 | 3.0 | 8.0 | 0.00 | 0.00 | 0.00 | 47 | 1016.7 |
| 20260507132251 | 45 | 184 | 6.0 | 8.0 | 0.00 | 0.00 | 0.00 | 47 | 1016.7 |
| 20260507131748 | 45 | 181 | 4.0 | 8.0 | 0.00 | 0.00 | 0.00 | 47 | 1016.8 |
| 20260507131244 | 45 | 176 | 4.0 | 10.0 | 0.00 | 0.00 | 0.00 | 48 | 1016.7 |
| 20260507130741 | 44 | 180 | 3.0 | 8.0 | 0.00 | 0.00 | 0.00 | 49 | 1016.8 |
| 20260507130239 | 44 | 190 | 6.0 | 7.0 | 0.00 | 0.00 | 0.00 | 49 | 1016.5 |
| 20260507125737 | 44 | 178 | 6.0 | 7.0 | 0.00 | 0.00 | 0.00 | 49 | 1016.5 |
| 20260507125235 | 43 | 194 | 3.0 | 12.0 | 0.00 | 0.00 | 0.00 | 49 | 1016.8 |
| 20260507124731 | 43 | 196 | 7.0 | 9.0 | 0.00 | 0.00 | 0.00 | 49 | 1016.2 |
| 20260507124228 | 43 | 180 | 5.0 | 9.0 | 0.00 | 0.00 | 0.00 | 49 | 1016.2 |
| 20260507123727 | 42 | 196 | 3.0 | 7.0 | 0.00 | 0.00 | 0.00 | 50 | 1016.1 |
| 20260507123224 | 42 | 146 | 2.0 | 12.0 | 0.00 | 0.00 | 0.00 | 51 | 1016.2 |
| 20260507122719 | 41 | 180 | 5.0 | 8.0 | 0.00 | 0.00 | 0.00 | 53 | 1016.1 |
| 20260507122215 | 41 | 188 | 4.0 | 8.0 | 0.00 | 0.00 | 0.00 | 52 | 1016.3 |
| 20260507121710 | 40 | 199 | 6.0 | 9.0 | 0.00 | 0.00 | 0.00 | 53 | 1016.0 |
| 20260507121207 | 40 | 216 | 2.0 | 7.0 | 0.00 | 0.00 | 0.00 | 53 | 1016.3 |
| 20260507120703 | 40 | 191 | 2.0 | 8.0 | 0.00 | 0.00 | 0.00 | 53 | 1016.4 |
| 20260507120200 | 40 | 218 | 5.0 | 9.0 | 0.00 | 0.00 | 0.00 | 53 | 1016.4 |
| 20260507115656 | 40 | 169 | 7.0 | 11.0 | 0.00 | 0.00 | 0.00 | 52 | 1016.2 |
| 20260507115152 | 40 | 230 | 3.0 | 9.0 | 0.00 | 0.00 | 0.00 | 53 | 1016.3 |
| 20260507114648 | 40 | 180 | 1.0 | 7.0 | 0.00 | 0.00 | 0.00 | 54 | 1016.3 |
| 20260507114146 | 40 | 173 | 3.0 | 7.0 | 0.00 | 0.00 | 0.00 | 54 | 1016.1 |
| 20260507113643 | 40 | 187 | 2.0 | 6.0 | 0.00 | 0.00 | 0.00 | 53 | 1016.3 |
| 20260507113139 | 40 | 187 | 3.0 | 12.0 | 0.00 | 0.00 | 0.00 | 53 | 1015.8 |
| 20260507112638 | 40 | 183 | 4.0 | 6.0 | 0.00 | 0.00 | 0.00 | 54 | 1016.0 |
| 20260507112134 | 39 | 202 | 2.0 | 6.0 | 0.00 | 0.00 | 0.00 | 55 | 1016.1 |
| 20260507111631 | 39 | 212 | 3.0 | 7.0 | 0.00 | 0.00 | 0.00 | 55 | 1016.1 |
| 20260507111128 | 39 | 212 | 4.0 | 8.0 | 0.00 | 0.00 | 0.00 | 55 | 1016.0 |
| 20260507110624 | 39 | 173 | 6.0 | 10.0 | 0.00 | 0.00 | 0.00 | 55 | 1016.0 |
| 20260507110121 | 39 | 207 | 3.0 | 8.0 | 0.00 | 0.00 | 0.00 | 55 | 1016.0 |
| 20260507105618 | 39 | 194 | 5.0 | 10.0 | 0.00 | 0.00 | 0.00 | 55 | 1016.1 |
| 20260507105113 | 39 | 191 | 5.0 | 8.0 | 0.00 | 0.00 | 0.00 | 56 | 1016.4 |
| 20260507104611 | 39 | 181 | 5.0 | 7.0 | 0.00 | 0.00 | 0.00 | 57 | 1016.1 |
| 20260507104107 | 39 | 174 | 4.0 | 9.0 | 0.00 | 0.00 | 0.00 | 57 | 1016.2 |
| 20260507103603 | 39 | 195 | 4.0 | 7.0 | 0.00 | 0.00 | 0.00 | 57 | 1016.1 |
| 20260507103100 | 38 | 213 | 4.0 | 7.0 | 0.00 | 0.00 | 0.00 | 58 | 1016.0 |
| 20260507102557 | 39 | 159 | 6.0 | 8.0 | 0.00 | 0.00 | 0.00 | 58 | 1016.2 |
| 20260507102053 | 39 | 177 | 6.0 | 6.0 | 0.00 | 0.00 | 0.00 | 58 | 1016.2 |
| 20260507101548 | 38 | 205 | 4.0 | 8.0 | 0.00 | 0.00 | 0.00 | 58 | 1016.2 |
| 20260507101045 | 38 | 183 | 5.0 | 8.0 | 0.00 | 0.00 | 0.00 | 59 | 1016.3 |
| 20260507100542 | 38 | 225 | 2.0 | 8.0 | 0.00 | 0.00 | 0.00 | 60 | 1016.7 |
| 20260507100041 | 38 | 183 | 5.0 | 5.0 | 0.00 | 0.00 | 0.00 | 60 | 1016.4 |
| 20260507095538 | 38 | 183 | 5.0 | 9.0 | 0.00 | 0.00 | 0.00 | 59 | 1016.5 |
| 20260507095035 | 38 | 248 | 2.0 | 8.0 | 0.00 | 0.00 | 0.00 | 60 | 1016.5 |
| 20260507094531 | 38 | 149 | 4.0 | 8.0 | 0.00 | 0.00 | 0.00 | 59 | 1016.4 |
| 20260507094028 | 38 | 191 | 5.0 | 9.0 | 0.00 | 0.00 | 0.00 | 60 | 1016.7 |
| 20260507093525 | 38 | 171 | 3.0 | 6.0 | 0.00 | 0.00 | 0.00 | 61 | 1016.5 |
| 20260507093024 | 38 | 181 | 7.0 | 9.0 | 0.00 | 0.00 | 0.00 | 60 | 1016.5 |
| 20260507092520 | 38 | 199 | 5.0 | 8.0 | 0.00 | 0.00 | 0.00 | 61 | 1016.5 |
| 20260507092017 | 38 | 185 | 5.0 | 6.0 | 0.00 | 0.00 | 0.00 | 61 | 1016.8 |
| 20260507091514 | 37 | 176 | 4.0 | 6.0 | 0.00 | 0.00 | 0.00 | 62 | 1016.5 |
| 20260507091010 | 37 | 185 | 4.0 | 8.0 | 0.00 | 0.00 | 0.00 | 63 | 1016.4 |
| 20260507090505 | 37 | 197 | 6.0 | 7.0 | 0.00 | 0.00 | 0.00 | 63 | 1016.5 |
| 20260507090002 | 37 | 182 | 3.0 | 7.0 | 0.00 | 0.00 | 0.00 | 64 | 1016.5 |
| 20260507085500 | 37 | 158 | 5.0 | 8.0 | 0.00 | 0.00 | 0.00 | 64 | 1016.5 |
| 20260507084956 | 37 | 180 | 8.0 | 9.0 | 0.00 | 0.00 | 0.00 | 64 | 1016.8 |
| 20260507084453 | 37 | 181 | 4.0 | 9.0 | 0.00 | 0.00 | 0.00 | 65 | 1016.3 |
| 20260507083950 | 37 | 124 | 2.0 | 9.0 | 0.00 | 0.00 | 0.00 | 66 | 1016.5 |
| 20260507083446 | 37 | 181 | 5.0 | 7.0 | 0.00 | 0.00 | 0.00 | 67 | 1016.5 |
| 20260507082943 | 37 | 191 | 4.0 | 7.0 | 0.00 | 0.00 | 0.00 | 68 | 1016.4 |
| 20260507082439 | 36 | 178 | 4.0 | 7.0 | 0.00 | 0.00 | 0.00 | 69 | 1016.8 |
| 20260507081935 | 36 | 186 | 4.0 | 8.0 | 0.00 | 0.00 | 0.00 | 70 | 1016.7 |
| 20260507081432 | 37 | 183 | 3.0 | 9.0 | 0.00 | 0.00 | 0.00 | 69 | 1016.8 |
| 20260507080929 | 37 | 170 | 4.0 | 6.0 | 0.00 | 0.00 | 0.00 | 68 | 1017.4 |
| 20260507080425 | 38 | 180 | 2.0 | 7.0 | 0.00 | 0.00 | 0.00 | 66 | 1016.9 |
| 20260507075920 | 38 | 179 | 5.0 | 9.0 | 0.00 | 0.00 | 0.00 | 66 | 1017.0 |
| 20260507075417 | 38 | 160 | 5.0 | 7.0 | 0.00 | 0.00 | 0.00 | 67 | 1017.1 |
| 20260507074914 | 37 | 210 | 4.0 | 7.0 | 0.00 | 0.00 | 0.00 | 69 | 1017.3 |
| 20260507074410 | 37 | 218 | 6.0 | 7.0 | 0.00 | 0.00 | 0.00 | 70 | 1017.1 |
| 20260507073908 | 37 | 182 | 3.0 | 7.0 | 0.00 | 0.00 | 0.00 | 71 | 1017.4 |
| 20260507073404 | 37 | 180 | 3.0 | 8.0 | 0.00 | 0.00 | 0.00 | 71 | 1017.6 |
| 20260507072901 | 37 | 184 | 4.0 | 8.0 | 0.00 | 0.00 | 0.00 | 72 | 1017.5 |
| 20260507072359 | 37 | 214 | 4.0 | 7.0 | 0.00 | 0.00 | 0.00 | 73 | 1017.4 |
| 20260507071856 | 37 | 157 | 3.0 | 7.0 | 0.00 | 0.00 | 0.00 | 73 | 1017.5 |
| 20260507071353 | 37 | 219 | 3.0 | 6.0 | 0.00 | 0.00 | 0.00 | 75 | 1017.4 |
| 20260507070849 | 36 | 180 | 3.0 | 6.0 | 0.00 | 0.00 | 0.00 | 77 | 1017.6 |
| 20260507070347 | 36 | 205 | 4.0 | 6.0 | 0.00 | 0.00 | 0.00 | 77 | 1017.4 |
| 20260507065844 | 36 | 180 | 2.0 | 5.0 | 0.00 | 0.00 | 0.00 | 77 | 1017.4 |
| 20260507065340 | 37 | 180 | 3.0 | 7.0 | 0.00 | 0.00 | 0.00 | 76 | 1017.3 |
| 20260507064837 | 36 | 170 | 2.0 | 9.0 | 0.00 | 0.00 | 0.00 | 76 | 1017.5 |
| 20260507064336 | 36 | 180 | 4.0 | 7.0 | 0.00 | 0.00 | 0.00 | 77 | 1017.6 |
| 20260507063833 | 36 | 192 | 2.0 | 5.0 | 0.00 | 0.00 | 0.00 | 78 | 1017.1 |
| 20260507063330 | 36 | 184 | 2.0 | 5.0 | 0.00 | 0.00 | 0.00 | 78 | 1017.6 |
| 20260507062826 | 36 | 180 | 4.0 | 6.0 | 0.00 | 0.00 | 0.00 | 78 | 1017.6 |
| 20260507062324 | 36 | 194 | 5.0 | 6.0 | 0.00 | 0.00 | 0.00 | 78 | 1017.4 |
| 20260507061822 | 36 | 168 | 3.0 | 7.0 | 0.00 | 0.00 | 0.00 | 79 | 1017.6 |
| 20260507061319 | 36 | 196 | 1.0 | 5.0 | 0.00 | 0.00 | 0.00 | 80 | 1017.5 |
| 20260507060818 | 35 | 180 | 6.0 | 6.0 | 0.00 | 0.00 | 0.00 | 81 | 1017.5 |
| 20260507060314 | 35 | 168 | 3.0 | 5.0 | 0.00 | 0.00 | 0.00 | 82 | 1017.4 |
| 20260507055811 | 35 | 172 | 4.0 | 5.0 | 0.00 | 0.70 | 0.70 | 82 | 1017.8 |
| 20260507055306 | 35 | 210 | 2.0 | 5.0 | 0.00 | 0.70 | 0.70 | 83 | 1017.7 |
| 20260507054802 | 35 | 180 | 4.0 | 5.0 | 0.00 | 0.70 | 0.70 | 83 | 1017.5 |
| 20260507054259 | 35 | 172 | 3.0 | 5.0 | 0.00 | 0.70 | 0.70 | 83 | 1017.8 |
| 20260507053756 | 35 | 182 | 3.0 | 5.0 | 0.00 | 0.70 | 0.70 | 83 | 1018.1 |
| 20260507053254 | 35 | 157 | 4.0 | 5.0 | 0.00 | 0.70 | 0.70 | 83 | 1017.8 |
| 20260507052753 | 35 | 152 | 2.0 | 5.0 | 0.00 | 0.70 | 0.70 | 84 | 1018.2 |
| 20260507052249 | 35 | 180 | 2.0 | 3.0 | 0.00 | 0.70 | 0.70 | 84 | 1018.0 |
| 20260507051747 | 35 | 177 | 2.0 | 3.0 | 0.00 | 0.70 | 0.70 | 84 | 1018.1 |
| 20260507051243 | 35 | 139 | 2.0 | 3.0 | 0.00 | 0.70 | 0.70 | 84 | 1018.1 |
| 20260507050740 | 35 | 172 | 3.0 | 5.0 | 0.00 | 0.70 | 0.70 | 83 | 1018.1 |
| 20260507050237 | 35 | 218 | 4.0 | 6.0 | 0.00 | 0.70 | 0.70 | 83 | 1018.0 |
| 20260507045734 | 35 | 198 | 0.0 | 5.0 | 0.02 | 0.70 | 0.70 | 83 | 1018.1 |
| 20260507045230 | 35 | 150 | 2.0 | 3.0 | 0.02 | 0.70 | 0.70 | 82 | 1018.0 |
| 20260507044727 | 36 | 195 | 0.0 | 4.0 | 0.00 | 0.70 | 0.70 | 82 | 1018.2 |
| 20260507044224 | 36 | 159 | 2.0 | 4.0 | 0.00 | 0.70 | 0.70 | 82 | 1018.0 |
| 20260507043720 | 35 | 173 | 3.0 | 5.0 | 0.00 | 0.70 | 0.70 | 82 | 1018.0 |
| 20260507043217 | 36 | 156 | 2.0 | 3.0 | 0.00 | 0.70 | 0.70 | 82 | 1018.1 |
| 20260507042714 | 35 | 180 | 1.0 | 3.0 | 0.00 | 0.70 | 0.70 | 82 | 1018.2 |
| 20260507042208 | 35 | 169 | 4.0 | 5.0 | 0.00 | 0.70 | 0.70 | 81 | 1018.2 |
| 20260507041706 | 35 | 173 | 1.0 | 3.0 | 0.00 | 0.70 | 0.70 | 81 | 1018.2 |
| 20260507041202 | 36 | 157 | 3.0 | 3.0 | 0.00 | 0.70 | 0.70 | 81 | 1018.1 |
| 20260507040659 | 36 | 186 | 1.0 | 1.0 | 0.00 | 0.70 | 0.70 | 80 | 1018.3 |
| 20260507040155 | 36 | 187 | 1.0 | 3.0 | 0.00 | 0.70 | 0.70 | 79 | 1018.0 |
| 20260507035652 | 36 | 217 | 2.0 | 4.0 | 0.00 | 0.70 | 0.70 | 80 | 1017.8 |
| 20260507035148 | 36 | 220 | 0.0 | 3.0 | 0.00 | 0.70 | 0.70 | 80 | 1018.2 |
| 20260507034644 | 35 | 200 | 0.0 | 1.0 | 0.00 | 0.70 | 0.70 | 82 | 1018.0 |
| 20260507034142 | 35 | 237 | 1.0 | 1.0 | 0.00 | 0.70 | 0.70 | 84 | 1018.0 |
| 20260507033641 | 34 | 90 | 0.0 | 1.0 | 0.00 | 0.70 | 0.70 | 84 | 1018.0 |
| 20260507033137 | 34 | 98 | 0.0 | 0.0 | 0.00 | 0.70 | 0.70 | 84 | 1017.8 |
| 20260507032635 | 35 | 103 | 0.0 | 1.0 | 0.00 | 0.70 | 0.70 | 83 | 1018.1 |
| 20260507032130 | 35 | 66 | 0.0 | 0.0 | 0.00 | 0.70 | 0.70 | 82 | 1018.1 |
| 20260507031627 | 35 | 106 | 2.0 | 2.0 | 0.00 | 0.70 | 0.70 | 80 | 1018.3 |
| 20260507031124 | 35 | 157 | 0.0 | 2.0 | 0.00 | 0.70 | 0.70 | 80 | 1018.0 |
| 20260507030621 | 36 | 106 | 0.0 | 2.0 | 0.00 | 0.70 | 0.70 | 79 | 1017.8 |
| 20260507030119 | 36 | 135 | 2.0 | 3.0 | 0.00 | 0.70 | 0.70 | 79 | 1017.7 |
| 20260507025616 | 36 | 138 | 3.0 | 3.0 | 0.00 | 0.70 | 0.70 | 78 | 1018.0 |
| 20260507025113 | 36 | 135 | 3.0 | 3.0 | 0.00 | 0.70 | 0.70 | 79 | 1017.7 |
| 20260507024611 | 36 | 117 | 1.0 | 2.0 | 0.00 | 0.70 | 0.70 | 78 | 1018.1 |
| 20260507024108 | 36 | 159 | 3.0 | 3.0 | 0.00 | 0.70 | 0.70 | 78 | 1017.8 |
| 20260507023603 | 37 | 107 | 2.0 | 2.0 | 0.00 | 0.70 | 0.70 | 76 | 1018.0 |
| 20260507023101 | 37 | 120 | 1.0 | 6.0 | 0.00 | 0.70 | 0.70 | 76 | 1017.8 |
| 20260507022557 | 37 | 161 | 2.0 | 4.0 | 0.00 | 0.70 | 0.70 | 75 | 1017.8 |
| 20260507022052 | 37 | 144 | 2.0 | 3.0 | 0.00 | 0.70 | 0.70 | 74 | 1018.0 |
| 20260507021549 | 37 | 158 | 4.0 | 5.0 | 0.00 | 0.70 | 0.70 | 73 | 1017.6 |
| 20260507021045 | 38 | 148 | 3.0 | 6.0 | 0.00 | 0.70 | 0.70 | 72 | 1017.8 |
| 20260507020543 | 38 | 168 | 3.0 | 4.0 | 0.00 | 0.70 | 0.70 | 71 | 1017.7 |
| 20260507020039 | 38 | 107 | 2.0 | 5.0 | 0.00 | 0.70 | 0.70 | 71 | 1017.5 |
| 20260507015538 | 38 | 154 | 2.0 | 6.0 | 0.00 | 0.70 | 0.70 | 69 | 1017.5 |
| 20260507015035 | 39 | 142 | 3.0 | 5.0 | 0.00 | 0.70 | 0.70 | 68 | 1017.7 |
| 20260507014531 | 39 | 140 | 3.0 | 4.0 | 0.00 | 0.70 | 0.70 | 66 | 1017.8 |
| 20260507014027 | 40 | 169 | 1.0 | 6.0 | 0.00 | 0.70 | 0.70 | 66 | 1017.7 |
| 20260507013524 | 41 | 157 | 1.0 | 4.0 | 0.00 | 0.70 | 0.70 | 65 | 1017.8 |
| 20260507013021 | 41 | 143 | 3.0 | 4.0 | 0.00 | 0.70 | 0.70 | 64 | 1017.8 |
| 20260507012519 | 41 | 177 | 4.0 | 6.0 | 0.00 | 0.70 | 0.70 | 63 | 1017.7 |
| 20260507012015 | 42 | 180 | 2.0 | 3.0 | 0.00 | 0.70 | 0.70 | 62 | 1017.8 |
| 20260507011512 | 42 | 173 | 5.0 | 7.0 | 0.00 | 0.70 | 0.70 | 61 | 1018.1 |
| 20260507011008 | 42 | 142 | 2.0 | 4.0 | 0.00 | 0.70 | 0.70 | 63 | 1018.1 |
| 20260507010503 | 42 | 172 | 3.0 | 6.0 | 0.00 | 0.70 | 0.70 | 62 | 1017.7 |
| 20260507005959 | 42 | 163 | 3.0 | 5.0 | 0.00 | 0.70 | 0.70 | 60 | 1018.1 |
| 20260507005457 | 42 | 194 | 1.0 | 6.0 | 0.00 | 0.70 | 0.70 | 61 | 1018.1 |
| 20260507004953 | 42 | 160 | 1.0 | 3.0 | 0.00 | 0.70 | 0.70 | 60 | 1018.2 |
| 20260507004450 | 42 | 125 | 3.0 | 6.0 | 0.02 | 0.70 | 0.70 | 59 | 1018.2 |
| 20260507003948 | 44 | 33 | 0.0 | 3.0 | 0.02 | 0.70 | 0.70 | 60 | 1018.3 |
| 20260507003442 | 44 | 139 | 2.0 | 3.0 | 0.02 | 0.69 | 0.69 | 57 | 1018.2 |
| 20260507002938 | 42 | 170 | 3.0 | 6.0 | 0.02 | 0.69 | 0.69 | 61 | 1018.2 |
| 20260507002435 | 43 | 132 | 2.0 | 5.0 | 0.00 | 0.69 | 0.69 | 59 | 1018.3 |
| 20260507001931 | 44 | 96 | 1.0 | 5.0 | 0.02 | 0.69 | 0.69 | 60 | 1018.3 |
| 20260507001428 | 42 | 96 | 2.0 | 5.0 | 0.05 | 0.69 | 0.69 | 60 | 1018.2 |
| 20260507000926 | 42 | 216 | 0.0 | 5.0 | 0.00 | 0.68 | 0.68 | 59 | 1018.2 |
| 20260507000421 | 41 | 180 | 3.0 | 7.0 | 0.02 | 0.68 | 0.68 | 61 | 1018.5 |
| 20260506235917 | 41 | 131 | 1.0 | 10.0 | 0.00 | 0.68 | 0.68 | 62 | 1018.4 |
| 20260506235415 | 42 | 237 | 8.0 | 9.0 | 0.00 | 0.68 | 0.68 | 59 | 1018.3 |
| 20260506234910 | 42 | 152 | 5.0 | 5.0 | 0.02 | 0.68 | 0.68 | 62 | 1018.4 |
| 20260506234408 | 42 | 97 | 3.0 | 5.0 | 0.02 | 0.68 | 0.68 | 62 | 1018.2 |
| 20260506233905 | 42 | 197 | 4.0 | 7.0 | 0.00 | 0.67 | 0.67 | 61 | 1018.4 |
| 20260506233401 | 42 | 151 | 5.0 | 7.0 | 0.02 | 0.67 | 0.67 | 62 | 1018.3 |
| 20260506232858 | 41 | 175 | 5.0 | 7.0 | 0.05 | 0.67 | 0.67 | 61 | 1018.3 |
| 20260506232354 | 42 | 167 | 4.0 | 7.0 | 0.05 | 0.67 | 0.67 | 62 | 1018.4 |
| 20260506231850 | 41 | 206 | 3.0 | 9.0 | 0.02 | 0.67 | 0.67 | 64 | 1018.4 |
| 20260506231348 | 41 | 159 | 0.0 | 7.0 | 0.02 | 0.66 | 0.66 | 64 | 1018.4 |
| 20260506230845 | 41 | 129 | 3.0 | 5.0 | 0.05 | 0.66 | 0.66 | 65 | 1018.3 |
| 20260506230342 | 42 | 135 | 2.0 | 5.0 | 0.05 | 0.66 | 0.66 | 63 | 1018.4 |
| 20260506225838 | 42 | 315 | 0.0 | 6.0 | 0.07 | 0.65 | 0.65 | 63 | 1018.5 |
| 20260506225336 | 41 | 152 | 5.0 | 5.0 | 0.05 | 0.65 | 0.65 | 63 | 1018.8 |
| 20260506224833 | 40 | 127 | 3.0 | 11.0 | 0.07 | 0.64 | 0.64 | 65 | 1018.5 |
| 20260506224330 | 42 | 221 | 4.0 | 11.0 | 0.05 | 0.63 | 0.63 | 61 | 1018.8 |
| 20260506223826 | 39 | 147 | 3.0 | 5.0 | 0.05 | 0.63 | 0.63 | 66 | 1018.9 |
| 20260506223321 | 39 | 168 | 1.0 | 9.0 | 0.05 | 0.62 | 0.62 | 68 | 1019.0 |
| 20260506222819 | 40 | 237 | 0.0 | 8.0 | 0.07 | 0.62 | 0.62 | 67 | 1018.8 |
| 20260506222313 | 39 | 166 | 3.0 | 6.0 | 0.07 | 0.61 | 0.61 | 65 | 1019.1 |
| 20260506221807 | 39 | 180 | 2.0 | 4.0 | 0.05 | 0.61 | 0.61 | 66 | 1019.0 |
| 20260506221304 | 39 | 26 | 0.0 | 5.0 | 0.07 | 0.60 | 0.60 | 69 | 1019.1 |
| 20260506220801 | 39 | 123 | 4.0 | 6.0 | 0.07 | 0.59 | 0.59 | 68 | 1019.4 |
| 20260506220256 | 40 | 204 | 2.0 | 2.0 | 0.07 | 0.59 | 0.59 | 67 | 1019.4 |
| 20260506215753 | 39 | 100 | 3.0 | 4.0 | 0.07 | 0.58 | 0.58 | 67 | 1019.4 |
| 20260506215249 | 39 | 95 | 2.0 | 3.0 | 0.07 | 0.57 | 0.57 | 71 | 1019.3 |
| 20260506214745 | 39 | 18 | 2.0 | 4.0 | 0.07 | 0.57 | 0.57 | 70 | 1019.4 |
| 20260506214242 | 38 | 117 | 3.0 | 4.0 | 0.07 | 0.56 | 0.56 | 72 | 1019.3 |
| 20260506213740 | 37 | 90 | 0.0 | 4.0 | 0.05 | 0.55 | 0.55 | 70 | 1019.5 |
| 20260506213232 | 38 | 103 | 1.0 | 5.0 | 0.09 | 0.55 | 0.55 | 72 | 1019.4 |
| 20260506212729 | 38 | 102 | 3.0 | 4.0 | 0.09 | 0.54 | 0.54 | 72 | 1019.4 |
| 20260506212224 | 38 | 100 | 5.0 | 5.0 | 0.07 | 0.53 | 0.53 | 72 | 1019.7 |
| 20260506211720 | 38 | 354 | 0.0 | 2.0 | 0.07 | 0.52 | 0.52 | 71 | 1019.4 |
| 20260506211216 | 37 | 42 | 0.0 | 5.0 | 0.09 | 0.52 | 0.52 | 74 | 1019.7 |
| 20260506210713 | 36 | 185 | 0.0 | 3.0 | 0.07 | 0.51 | 0.51 | 75 | 1019.8 |
| 20260506210210 | 37 | 117 | 2.0 | 3.0 | 0.07 | 0.50 | 0.50 | 75 | 1020.0 |
| 20260506205707 | 36 | 104 | 3.0 | 4.0 | 0.07 | 0.49 | 0.49 | 75 | 1019.7 |
| 20260506205202 | 36 | 48 | 2.0 | 5.0 | 0.07 | 0.48 | 0.48 | 76 | 1019.7 |
| 20260506204700 | 37 | 104 | 3.0 | 4.0 | 0.05 | 0.48 | 0.48 | 74 | 1019.8 |
| 20260506204156 | 37 | 121 | 2.0 | 4.0 | 0.07 | 0.47 | 0.47 | 76 | 1019.8 |
| 20260506203655 | 37 | 114 | 1.0 | 3.0 | 0.09 | 0.47 | 0.47 | 77 | 1020.0 |
| 20260506203152 | 37 | 82 | 4.0 | 4.0 | 0.09 | 0.46 | 0.46 | 78 | 1020.3 |
| 20260506202650 | 37 | 22 | 3.0 | 3.0 | 0.12 | 0.45 | 0.45 | 79 | 1020.1 |
| 20260506202145 | 37 | 335 | 3.0 | 3.0 | 0.12 | 0.44 | 0.44 | 76 | 1020.0 |
| 20260506201643 | 37 | 57 | 1.0 | 5.0 | 0.12 | 0.42 | 0.42 | 76 | 1020.3 |
| 20260506201139 | 35 | 48 | 4.0 | 5.0 | 0.09 | 0.41 | 0.41 | 78 | 1020.3 |
| 20260506200636 | 36 | 32 | 6.0 | 6.0 | 0.12 | 0.41 | 0.41 | 76 | 1020.2 |
| 20260506200133 | 36 | 115 | 2.0 | 5.0 | 0.17 | 0.40 | 0.40 | 74 | 1020.2 |